Montgomery, NY

10:41 PM EDT on June 28, 2017 (GMT -0400)
Orange County

Weather History for KMGJ - July, 2013

Change the Weather History Date:

Wednesday, July 10, 2013

  Actual Average (KSWF) Record (KSWF)
Temperature  
Mean Temperature 78 °F -  
Max Temperature 86 °F 80 °F 96 °F (1993)
Min Temperature 71 °F 59 °F 44 °F (1983)
Cooling Degree Days 12    
Growing Degree Days 28 (Base 50)    
Moisture  
Dew Point 71 °F    
Average Humidity 83    
Maximum Humidity 94    
Minimum Humidity 65    
Precipitation  
Precipitation 0.08 in - - ()
Sea Level Pressure  
Sea Level Pressure 29.90 in    
Wind  
Wind Speed 4 mph (SW)    
Max Wind Speed 16 mph    
Max Gust Speed 26 mph    
Visibility 7 miles    
Events Rain    
Averages and records for this station are not official NWS values.
T = Trace of Precipitation, MM = Missing Value Source: NWS Daily Summary

Daily Weather History Graph

Daily Weather History Graph

Search for Another Location

Airport or City:

Trip Planner

Search our weather history database for the weather conditions in past years. The results will help you decide how hot, cold, wet, or windy it might be!

Date:

Astronomy

Jul. 10, 2013 Rise Set
Actual Time 5:32 AM EDT 8:31 PM EDT
Civil Twilight 4:59 AM EDT 9:05 PM EDT
Nautical Twilight 4:16 AM EDT 9:47 PM EDT
Astronomical Twilight 3:27 AM EDT 10:36 PM EDT
Moon 7:53 AM EDT (7/10) 9:37 PM EDT (7/10)
Length of Visible Light 16h 05m
Length of Day
14h 59m
Waxing Crescent, 5% of the Moon is Illuminated
Jul 10
Waxing Crescent
Jul 15
First Quarter
Jul 22
Full
Jul 29
Last Quarter
Aug 6
New

Hourly Weather History & Observations

Time (EDT) Temp. Heat Index Dew Point Humidity Pressure Visibility Wind Dir Wind Speed Gust Speed Precip Events Conditions
12:54 AM 73.9 °F - 68.0 °F 82% 29.99 in 9.0 mi Calm Calm - N/A   Overcast
1:54 AM 72.0 °F - 69.1 °F 91% 29.98 in 8.0 mi SW 3.5 mph - N/A   Overcast
2:54 AM 72.0 °F - 69.1 °F 91% 29.96 in 8.0 mi Calm Calm - N/A   Mostly Cloudy
3:54 AM 72.0 °F - 69.1 °F 91% 29.96 in 6.0 mi Calm Calm - N/A   Overcast
4:27 AM 71.6 °F - 69.8 °F 94% 29.96 in 6.0 mi Calm Calm - N/A   Mostly Cloudy
4:54 AM 71.1 °F - 69.1 °F 93% 29.96 in 6.0 mi Calm Calm - N/A   Partly Cloudy
5:12 AM 71.6 °F - 69.8 °F 94% 29.97 in 5.0 mi Calm Calm - N/A   Mostly Cloudy
5:54 AM 71.1 °F - 69.1 °F 93% 29.96 in 4.0 mi Calm Calm - N/A   Overcast
6:07 AM 71.6 °F - 69.8 °F 94% 29.96 in 4.0 mi Calm Calm - N/A   Mostly Cloudy
6:49 AM 71.6 °F - 69.8 °F 94% 29.96 in 4.0 mi Calm Calm - N/A   Mostly Cloudy
6:54 AM 72.0 °F - 70.0 °F 93% 29.95 in 4.0 mi Calm Calm - N/A   Overcast
7:54 AM 73.0 °F - 70.0 °F 90% 29.95 in 5.0 mi Calm Calm - N/A   Overcast
8:08 AM 73.4 °F - 69.8 °F 88% 29.95 in 5.0 mi Calm Calm - N/A   Overcast
8:29 AM 75.2 °F - 69.8 °F 83% 29.95 in 5.0 mi Calm Calm - N/A   Haze
8:54 AM 75.0 °F - 71.1 °F 87% 29.94 in 6.0 mi Calm Calm - N/A   Overcast
9:54 AM 78.1 °F - 72.0 °F 81% 29.92 in 6.0 mi Variable 4.6 mph - N/A   Haze
10:54 AM 80.1 °F 83.8 °F 72.0 °F 76% 29.92 in 6.0 mi SSW 10.4 mph - N/A   Haze
11:24 AM 82.4 °F 88.2 °F 73.4 °F 74% 29.91 in 6.0 mi SW 12.7 mph 18.4 mph N/A   Haze
11:54 AM 82.9 °F 88.8 °F 73.0 °F 72% 29.88 in 7.0 mi SW 13.8 mph 21.9 mph N/A   Scattered Clouds
12:39 PM 84.2 °F 90.9 °F 73.4 °F 70% 29.88 in 7.0 mi SW 13.8 mph 20.7 mph N/A   Mostly Cloudy
12:54 PM 84.9 °F 90.7 °F 72.0 °F 65% 29.86 in 8.0 mi SSW 16.1 mph 26.5 mph N/A   Mostly Cloudy
1:54 PM 82.9 °F 88.8 °F 73.0 °F 72% 29.85 in 10.0 mi SW 15.0 mph 21.9 mph 0.00 in Rain Light Rain
2:54 PM 84.0 °F 90.2 °F 73.0 °F 69% 29.82 in 10.0 mi SSW 11.5 mph - 0.00 in   Scattered Clouds
3:28 PM 78.8 °F - 73.4 °F 83% 29.84 in 1.8 mi SW 16.1 mph - 0.06 in Rain Heavy Rain
3:38 PM 78.8 °F - 75.2 °F 89% 29.83 in 3.0 mi SSW 11.5 mph - 0.08 in Rain Light Rain
3:54 PM 82.0 °F 89.4 °F 75.9 °F 82% 29.82 in 10.0 mi SW 9.2 mph - 0.08 in   Partly Cloudy
4:54 PM 81.0 °F 86.2 °F 73.9 °F 79% 29.80 in 10.0 mi SSW 5.8 mph - N/A   Clear
5:54 PM 82.0 °F 87.9 °F 73.9 °F 76% 29.80 in 10.0 mi SSW 6.9 mph - N/A   Clear
6:54 PM 82.9 °F 88.0 °F 72.0 °F 69% 29.80 in 10.0 mi SW 11.5 mph - N/A   Partly Cloudy
7:54 PM 80.1 °F 83.8 °F 72.0 °F 76% 29.82 in 10.0 mi SSW 5.8 mph - N/A   Clear
8:54 PM 78.1 °F - 71.1 °F 79% 29.82 in 10.0 mi SSW 8.1 mph - N/A   Clear
9:54 PM 75.9 °F - 71.1 °F 85% 29.84 in 10.0 mi SW 4.6 mph - N/A   Clear
10:54 PM 75.0 °F - 70.0 °F 84% 29.83 in 10.0 mi SW 3.5 mph - N/A   Clear
11:54 PM 73.0 °F - 70.0 °F 90% 29.81 in 10.0 mi Calm Calm - N/A   Clear